Time,TemperatureF,DewpointF,PressureIn,WindDirection,WindDirectionDegrees,WindSpeedMPH,WindSpeedGustMPH,Humidity,HourlyPrecipIn,Conditions,Clouds,dailyrainin,SoftwareType,DateUTC
2013-03-16 00:00:00,43.0,33.9,29.82,NW,325,0.0,0.0,70,0.00,,---,0.00,VWS V13.01,2013-03-16 04:00:00,
2013-03-16 00:01:00,43.0,33.9,29.82,NW,325,0.0,0.0,70,0.00,,---,0.00,VWS V13.01,2013-03-16 04:01:00,
2013-03-16 00:07:00,43.0,33.9,29.82,NW,324,0.0,0.0,70,0.00,,---,0.00,VWS V13.01,2013-03-16 04:07:00,
2013-03-16 00:12:00,43.0,33.9,29.82,NW,324,2.7,3.6,70,0.00,,---,0.00,VWS V13.01,2013-03-16 04:12:00,
2013-03-16 00:17:00,43.0,33.9,29.82,NW,324,0.0,0.0,70,0.00,,---,0.00,VWS V13.01,2013-03-16 04:17:00,
2013-03-16 00:22:00,43.0,34.2,29.82,NW,324,3.1,4.0,71,0.00,,---,0.00,VWS V13.01,2013-03-16 04:22:00,
2013-03-16 00:27:00,43.0,34.2,29.79,NW,325,4.0,4.0,71,0.00,,---,0.00,VWS V13.01,2013-03-16 04:27:00,
2013-03-16 00:32:00,43.0,34.2,29.79,NW,324,4.9,4.9,71,0.00,,---,0.00,VWS V13.01,2013-03-16 04:32:00,
2013-03-16 00:37:00,43.0,34.2,29.79,NNW,328,4.5,4.5,71,0.00,,---,0.00,VWS V13.01,2013-03-16 04:37:00,
2013-03-16 00:42:00,43.0,34.6,29.79,NNW,332,3.6,4.0,72,0.00,,---,0.00,VWS V13.01,2013-03-16 04:42:00,
2013-03-16 00:47:00,42.8,34.4,29.79,NNW,334,4.5,4.5,72,0.00,,---,0.00,VWS V13.01,2013-03-16 04:47:00,
2013-03-16 00:52:00,42.8,34.4,29.79,North,351,5.4,5.4,72,0.00,,---,0.00,VWS V13.01,2013-03-16 04:52:00,
2013-03-16 00:57:00,42.8,34.4,29.79,NNW,345,4.0,4.5,72,0.00,,---,0.00,VWS V13.01,2013-03-16 04:57:00,
2013-03-16 01:02:00,42.6,34.2,29.79,NNW,346,4.0,5.4,72,0.00,,---,0.00,VWS V13.01,2013-03-16 05:02:00,
2013-03-16 01:07:00,42.4,34.1,29.79,North,351,3.6,4.9,72,0.00,,---,0.00,VWS V13.01,2013-03-16 05:07:00,
2013-03-16 01:12:00,42.3,33.9,29.76,North,351,5.4,7.4,72,0.00,,---,0.00,VWS V13.01,2013-03-16 05:12:00,
2013-03-16 01:17:00,42.4,34.4,29.76,NNW,346,4.9,6.9,73,0.00,,---,0.00,VWS V13.01,2013-03-16 05:17:00,
2013-03-16 01:22:00,42.3,33.9,29.76,North,8,6.7,6.7,72,0.00,,---,0.00,VWS V13.01,2013-03-16 05:22:00,
2013-03-16 01:27:00,42.3,34.2,29.76,NNW,345,4.0,5.8,73,0.00,,---,0.00,VWS V13.01,2013-03-16 05:27:00,
2013-03-16 01:32:00,42.1,34.1,29.76,North,9,6.7,8.7,73,0.00,,---,0.00,VWS V13.01,2013-03-16 05:32:00,
2013-03-16 01:37:00,42.1,34.1,29.76,North,356,6.9,7.8,73,0.00,,---,0.00,VWS V13.01,2013-03-16 05:37:00,
2013-03-16 01:42:00,42.3,34.6,29.73,North,356,5.4,6.3,74,0.00,,---,0.00,VWS V13.01,2013-03-16 05:42:00,
2013-03-16 01:47:00,42.3,34.6,29.73,NNW,347,7.8,9.6,74,0.00,,---,0.00,VWS V13.01,2013-03-16 05:47:00,
2013-03-16 01:52:00,42.1,34.4,29.73,NNW,343,4.5,5.8,74,0.00,,---,0.00,VWS V13.01,2013-03-16 05:52:00,
2013-03-16 01:57:00,42.1,34.4,29.73,North,8,5.4,8.7,74,0.00,,---,0.00,VWS V13.01,2013-03-16 05:57:00,
2013-03-16 02:03:00,42.1,34.4,29.73,WSW,237,6.3,8.7,74,0.00,,---,0.00,VWS V13.01,2013-03-16 06:03:00,
2013-03-16 02:08:00,42.1,34.4,29.73,North,351,4.9,7.8,74,0.00,,---,0.00,VWS V13.01,2013-03-16 06:08:00,
2013-03-16 02:13:00,41.9,34.2,29.73,North,356,4.0,7.8,74,0.00,,---,0.00,VWS V13.01,2013-03-16 06:13:00,
2013-03-16 02:18:00,41.7,34.1,29.73,NNW,338,4.9,8.3,74,0.00,,---,0.00,VWS V13.01,2013-03-16 06:18:00,
2013-03-16 02:23:00,41.7,34.1,29.73,North,356,4.5,8.3,74,0.00,,---,0.00,VWS V13.01,2013-03-16 06:23:00,
2013-03-16 02:28:00,41.9,34.6,29.73,North,356,5.4,7.4,75,0.00,,---,0.00,VWS V13.01,2013-03-16 06:28:00,
2013-03-16 02:33:00,41.7,34.4,29.73,North,351,4.0,6.9,75,0.00,,---,0.00,VWS V13.01,2013-03-16 06:33:00,
2013-03-16 02:38:00,41.7,34.1,29.73,NNW,338,10.1,10.1,74,0.00,,---,0.00,VWS V13.01,2013-03-16 06:38:00,
2013-03-16 02:43:00,41.7,34.1,29.73,NNW,345,7.8,7.8,74,0.00,,---,0.00,VWS V13.01,2013-03-16 06:43:00,
2013-03-16 02:48:00,41.5,33.9,29.73,NNW,339,4.0,4.9,74,0.00,,---,0.00,VWS V13.01,2013-03-16 06:48:00,
2013-03-16 02:53:00,41.5,34.2,29.73,NNW,344,5.8,5.8,75,0.00,,---,0.00,VWS V13.01,2013-03-16 06:53:00,
2013-03-16 02:58:00,41.5,33.9,29.73,North,351,9.2,9.2,74,0.00,,---,0.00,VWS V13.01,2013-03-16 06:58:00,
2013-03-16 03:03:00,41.5,33.9,29.73,North,356,7.4,8.7,74,0.00,,---,0.00,VWS V13.01,2013-03-16 07:03:00,
2013-03-16 03:08:00,41.4,34.0,29.73,North,351,6.7,7.4,75,0.00,,---,0.00,VWS V13.01,2013-03-16 07:08:00,
2013-03-16 03:13:00,41.5,34.2,29.73,NNW,343,3.6,5.4,75,0.00,,---,0.00,VWS V13.01,2013-03-16 07:13:00,
2013-03-16 03:18:00,41.4,34.0,29.73,North,4,4.5,7.8,75,0.00,,---,0.00,VWS V13.01,2013-03-16 07:18:00,
2013-03-16 03:23:00,41.4,34.0,29.73,North,1,6.9,8.7,75,0.00,,---,0.00,VWS V13.01,2013-03-16 07:23:00,
2013-03-16 03:28:00,41.4,34.0,29.70,North,356,5.4,7.8,75,0.00,,---,0.00,VWS V13.01,2013-03-16 07:28:00,
2013-03-16 03:33:00,41.4,34.0,29.70,NNW,342,4.0,6.7,75,0.00,,---,0.00,VWS V13.01,2013-03-16 07:33:00,
2013-03-16 03:38:00,41.4,34.0,29.70,NNW,347,6.7,8.3,75,0.00,,---,0.00,VWS V13.01,2013-03-16 07:38:00,
2013-03-16 03:43:00,41.5,34.2,29.73,NNW,336,4.9,5.8,75,0.00,,---,0.00,VWS V13.01,2013-03-16 07:43:00,
2013-03-16 03:48:00,41.4,34.0,29.73,NNW,342,4.5,6.9,75,0.00,,---,0.00,VWS V13.01,2013-03-16 07:48:00,
2013-03-16 03:53:00,41.2,33.5,29.73,North,3,4.9,7.4,74,0.00,,---,0.00,VWS V13.01,2013-03-16 07:53:00,
2013-03-16 03:58:00,41.2,33.9,29.73,North,351,4.0,6.9,75,0.00,,---,0.00,VWS V13.01,2013-03-16 07:58:00,
2013-03-16 04:03:00,41.4,34.0,29.73,North,356,5.8,7.8,75,0.00,,---,0.00,VWS V13.01,2013-03-16 08:03:00,
2013-03-16 04:08:00,41.2,33.5,29.73,NNW,342,7.4,7.4,74,0.00,,---,0.00,VWS V13.01,2013-03-16 08:08:00,
2013-03-16 04:13:00,41.0,33.4,29.73,North,351,7.4,9.2,74,0.00,,---,0.00,VWS V13.01,2013-03-16 08:13:00,
2013-03-16 04:18:00,41.0,33.4,29.73,NNE,15,6.7,9.6,74,0.00,,---,0.00,VWS V13.01,2013-03-16 08:18:00,
2013-03-16 04:23:00,40.8,33.2,29.73,North,7,6.3,10.5,74,0.00,,---,0.00,VWS V13.01,2013-03-16 08:23:00,
2013-03-16 04:29:00,40.8,33.2,29.70,North,356,6.7,8.3,74,0.00,,---,0.00,VWS V13.01,2013-03-16 08:29:00,
2013-03-16 04:34:00,40.6,33.0,29.70,South,188,7.4,9.6,74,0.00,,---,0.00,VWS V13.01,2013-03-16 08:34:00,
2013-03-16 04:39:00,40.6,33.0,29.70,NNW,341,9.6,9.6,74,0.00,,---,0.00,VWS V13.01,2013-03-16 08:39:00,
2013-03-16 04:44:00,40.6,33.0,29.70,North,10,6.9,11.0,74,0.00,,---,0.00,VWS V13.01,2013-03-16 08:44:00,
2013-03-16 04:49:00,40.6,33.0,29.70,NNW,339,6.3,7.8,74,0.00,,---,0.00,VWS V13.01,2013-03-16 08:49:00,
2013-03-16 04:54:00,40.5,32.8,29.70,NNE,13,5.4,9.6,74,0.00,,---,0.00,VWS V13.01,2013-03-16 08:54:00,
2013-03-16 04:59:00,40.3,32.7,29.67,NNW,346,4.0,7.8,74,0.00,,---,0.00,VWS V13.01,2013-03-16 08:59:00,
2013-03-16 05:04:00,40.5,32.8,29.67,NNW,336,5.8,6.7,74,0.00,,---,0.00,VWS V13.01,2013-03-16 09:04:00,
2013-03-16 05:09:00,40.5,32.8,29.67,North,4,3.6,8.7,74,0.00,,---,0.00,VWS V13.01,2013-03-16 09:09:00,
2013-03-16 05:14:00,40.3,32.7,29.67,North,351,7.8,8.7,74,0.00,,---,0.00,VWS V13.01,2013-03-16 09:14:00,
2013-03-16 05:19:00,40.3,32.7,29.67,NNW,342,4.5,6.7,74,0.00,,---,0.00,VWS V13.01,2013-03-16 09:19:00,
2013-03-16 05:24:00,40.1,32.5,29.67,NNW,343,4.9,5.4,74,0.00,,---,0.00,VWS V13.01,2013-03-16 09:24:00,
2013-03-16 05:29:00,40.3,32.7,29.67,North,7,5.8,8.3,74,0.00,,---,0.00,VWS V13.01,2013-03-16 09:29:00,
2013-03-16 05:34:00,40.3,32.7,29.67,North,351,0.0,6.3,74,0.00,,---,0.00,VWS V13.01,2013-03-16 09:34:00,
2013-03-16 05:39:00,40.3,32.7,29.67,North,356,6.3,6.3,74,0.00,,---,0.00,VWS V13.01,2013-03-16 09:39:00,
2013-03-16 05:44:00,40.5,32.8,29.67,NNE,13,6.9,8.7,74,0.00,,---,0.00,VWS V13.01,2013-03-16 09:44:00,
2013-03-16 05:49:00,40.1,32.5,29.67,NNW,333,7.4,7.4,74,0.00,,---,0.00,VWS V13.01,2013-03-16 09:49:00,
2013-03-16 05:54:00,40.3,32.7,29.67,NNE,14,3.6,6.9,74,0.00,,---,0.00,VWS V13.01,2013-03-16 09:54:00,
2013-03-16 05:59:00,40.3,32.7,29.67,NNW,338,5.4,6.7,74,0.00,,---,0.00,VWS V13.01,2013-03-16 09:59:00,
2013-03-16 06:04:00,40.3,32.7,29.67,NNE,16,7.4,7.4,74,0.00,,---,0.00,VWS V13.01,2013-03-16 10:04:00,
2013-03-16 06:09:00,40.5,32.8,29.67,NNW,331,3.6,5.8,74,0.00,,---,0.00,VWS V13.01,2013-03-16 10:09:00,
2013-03-16 06:14:00,40.5,32.8,29.70,North,356,4.0,6.3,74,0.00,,---,0.00,VWS V13.01,2013-03-16 10:14:00,
2013-03-16 06:19:00,40.3,32.3,29.70,NE,55,5.8,6.9,73,0.00,,---,0.00,VWS V13.01,2013-03-16 10:19:00,
2013-03-16 06:24:00,40.3,32.3,29.70,NNW,342,5.4,5.4,73,0.00,,---,0.00,VWS V13.01,2013-03-16 10:24:00,
2013-03-16 06:29:00,40.3,32.3,29.70,North,8,5.8,6.3,73,0.00,,---,0.00,VWS V13.01,2013-03-16 10:29:00,
2013-03-16 06:34:00,40.3,32.3,29.70,North,2,3.1,5.8,73,0.00,,---,0.00,VWS V13.01,2013-03-16 10:34:00,
2013-03-16 06:39:00,40.3,32.3,29.70,NNW,346,4.0,5.8,73,0.00,,---,0.00,VWS V13.01,2013-03-16 10:39:00,
2013-03-16 06:44:00,40.5,32.5,29.70,North,1,6.3,6.7,73,0.00,,---,0.00,VWS V13.01,2013-03-16 10:44:00,
2013-03-16 06:49:00,40.5,32.5,29.70,North,351,4.9,5.8,73,0.00,,---,0.00,VWS V13.01,2013-03-16 10:49:00,
2013-03-16 06:54:00,40.3,32.0,29.70,NE,35,4.9,5.4,72,0.00,,---,0.00,VWS V13.01,2013-03-16 10:54:00,
2013-03-16 06:59:00,40.3,32.0,29.70,North,4,6.3,6.7,72,0.00,,---,0.00,VWS V13.01,2013-03-16 10:59:00,
2013-03-16 07:04:00,40.3,32.0,29.70,NNE,13,6.3,7.4,72,0.00,,---,0.00,VWS V13.01,2013-03-16 11:04:00,
2013-03-16 07:09:00,39.9,31.6,29.70,North,356,4.0,6.7,72,0.00,,---,0.00,VWS V13.01,2013-03-16 11:09:00,
2013-03-16 07:14:00,39.9,31.6,29.70,NNW,342,6.3,6.7,72,0.00,,---,0.00,VWS V13.01,2013-03-16 11:14:00,
2013-03-16 07:19:00,40.1,32.2,29.70,NNE,16,6.3,11.0,73,0.00,,---,0.00,VWS V13.01,2013-03-16 11:19:00,
2013-03-16 07:24:00,39.9,32.0,29.70,NW,319,4.0,7.4,73,0.00,,---,0.00,VWS V13.01,2013-03-16 11:24:00,
2013-03-16 07:29:00,40.3,32.3,29.70,North,356,4.0,7.4,73,0.00,,---,0.00,VWS V13.01,2013-03-16 11:29:00,
2013-03-16 07:34:00,40.3,32.0,29.70,NNW,333,5.4,6.3,72,0.00,,---,0.00,VWS V13.01,2013-03-16 11:34:00,
2013-03-16 07:39:00,40.3,32.0,29.70,North,0,6.3,6.3,72,0.00,,---,0.00,VWS V13.01,2013-03-16 11:39:00,
2013-03-16 07:44:00,40.3,32.0,29.73,North,351,3.1,5.8,72,0.00,,---,0.00,VWS V13.01,2013-03-16 11:44:00,
2013-03-16 07:49:00,40.3,31.6,29.73,North,356,4.5,5.8,71,0.00,,---,0.00,VWS V13.01,2013-03-16 11:49:00,
2013-03-16 07:54:00,40.3,31.6,29.73,North,356,4.5,7.4,71,0.00,,---,0.00,VWS V13.01,2013-03-16 11:54:00,
2013-03-16 07:59:00,40.3,31.6,29.70,NNW,346,4.5,6.3,71,0.00,,---,0.00,VWS V13.01,2013-03-16 11:59:00,
2013-03-16 08:04:00,39.9,31.3,29.70,North,2,4.9,9.2,71,0.00,,---,0.00,VWS V13.01,2013-03-16 12:04:00,
2013-03-16 08:09:00,39.9,31.3,29.70,North,4,6.3,6.7,71,0.00,,---,0.00,VWS V13.01,2013-03-16 12:09:00,
2013-03-16 08:14:00,39.7,30.8,29.70,NNE,16,2.7,6.7,70,0.00,,---,0.00,VWS V13.01,2013-03-16 12:14:00,
2013-03-16 08:19:00,39.9,31.3,29.70,North,3,5.4,7.8,71,0.00,,---,0.00,VWS V13.01,2013-03-16 12:19:00,
2013-03-16 08:24:00,39.7,31.1,29.70,North,6,6.7,7.8,71,0.00,,---,0.00,VWS V13.01,2013-03-16 12:24:00,
2013-03-16 08:29:00,39.7,30.8,29.73,North,351,3.6,7.8,70,0.00,,---,0.00,VWS V13.01,2013-03-16 12:29:00,
2013-03-16 08:34:00,39.9,30.9,29.73,East,101,3.6,5.4,70,0.00,,---,0.00,VWS V13.01,2013-03-16 12:34:00,
2013-03-16 08:39:00,39.7,30.8,29.73,North,10,3.1,4.9,70,0.00,,---,0.00,VWS V13.01,2013-03-16 12:39:00,
2013-03-16 08:44:00,39.7,30.8,29.73,North,356,4.0,5.4,70,0.00,,---,0.00,VWS V13.01,2013-03-16 12:44:00,
2013-03-16 08:49:00,39.7,30.4,29.73,NNW,330,6.7,6.7,69,0.00,,---,0.00,VWS V13.01,2013-03-16 12:49:00,
2013-03-16 08:54:00,39.6,30.2,29.73,North,356,6.3,6.3,69,0.00,,---,0.00,VWS V13.01,2013-03-16 12:54:00,
2013-03-16 08:59:00,39.4,29.7,29.73,North,2,4.9,4.9,68,0.00,,---,0.00,VWS V13.01,2013-03-16 12:59:00,
2013-03-16 09:04:00,39.6,29.9,29.73,NNW,336,5.8,6.3,68,0.00,,---,0.00,VWS V13.01,2013-03-16 13:04:00,
2013-03-16 09:09:00,39.6,29.9,29.73,NNW,336,5.8,6.9,68,0.00,,---,0.00,VWS V13.01,2013-03-16 13:09:00,
2013-03-16 09:14:00,39.4,29.4,29.73,North,356,4.9,6.7,67,0.00,,---,0.00,VWS V13.01,2013-03-16 13:14:00,
2013-03-16 09:19:00,39.4,29.4,29.73,NNW,336,4.9,4.9,67,0.00,,---,0.00,VWS V13.01,2013-03-16 13:19:00,
2013-03-16 09:24:00,39.2,29.2,29.73,North,351,6.9,8.3,67,0.00,,---,0.00,VWS V13.01,2013-03-16 13:24:00,
2013-03-16 09:29:00,39.2,29.2,29.76,North,356,6.3,6.3,67,0.00,,---,0.00,VWS V13.01,2013-03-16 13:29:00,
2013-03-16 09:34:00,39.2,29.2,29.76,NNW,344,6.3,7.8,67,0.00,,---,0.00,VWS V13.01,2013-03-16 13:34:00,
2013-03-16 09:39:00,39.2,29.2,29.76,NNE,24,4.9,6.3,67,0.00,,---,0.00,VWS V13.01,2013-03-16 13:39:00,
2013-03-16 09:44:00,39.2,29.2,29.76,NW,326,5.8,8.7,67,0.00,,---,0.00,VWS V13.01,2013-03-16 13:44:00,
2013-03-16 09:49:00,38.8,28.1,29.76,North,351,4.9,6.9,65,0.00,,---,0.00,VWS V13.01,2013-03-16 13:49:00,
2013-03-16 09:54:00,38.5,27.8,29.76,NNW,343,6.3,9.2,65,0.00,,---,0.00,VWS V13.01,2013-03-16 13:54:00,
2013-03-16 09:59:00,38.5,27.8,29.76,North,356,6.9,7.4,65,0.00,,---,0.00,VWS V13.01,2013-03-16 13:59:00,
2013-03-16 10:04:00,38.5,28.1,29.76,SSW,207,13.0,13.9,66,0.00,,---,0.00,VWS V13.01,2013-03-16 14:04:00,
2013-03-16 10:09:00,38.5,27.8,29.76,NNW,334,5.4,6.7,65,0.00,,---,0.00,VWS V13.01,2013-03-16 14:09:00,
2013-03-16 10:14:00,38.3,27.6,29.76,NNW,329,6.9,6.9,65,0.00,,---,0.00,VWS V13.01,2013-03-16 14:14:00,
2013-03-16 10:19:00,38.5,27.8,29.76,NNW,342,8.7,8.7,65,0.00,,---,0.00,VWS V13.01,2013-03-16 14:19:00,
2013-03-16 10:24:00,38.1,27.0,29.76,NW,323,6.7,8.3,64,0.00,,---,0.00,VWS V13.01,2013-03-16 14:24:00,
2013-03-16 10:29:00,37.9,26.9,29.76,NNW,327,5.8,7.8,64,0.00,,---,0.00,VWS V13.01,2013-03-16 14:29:00,
2013-03-16 10:34:00,38.1,26.6,29.76,NW,320,4.5,5.4,63,0.00,,---,0.00,VWS V13.01,2013-03-16 14:34:00,
2013-03-16 10:39:00,38.1,26.6,29.76,NW,324,6.9,6.9,63,0.00,,---,0.00,VWS V13.01,2013-03-16 14:39:00,
2013-03-16 10:44:00,38.1,26.6,29.76,NW,315,6.3,6.7,63,0.00,,---,0.00,VWS V13.01,2013-03-16 14:44:00,
2013-03-16 10:49:00,37.9,25.7,29.76,NW,306,6.7,6.9,61,0.00,,---,0.00,VWS V13.01,2013-03-16 14:49:00,
2013-03-16 10:54:00,37.9,25.7,29.76,NW,310,4.5,5.8,61,0.00,,---,0.00,VWS V13.01,2013-03-16 14:54:00,
2013-03-16 10:59:00,37.9,25.7,29.79,ENE,60,7.8,9.2,61,0.00,,---,0.00,VWS V13.01,2013-03-16 14:59:00,
2013-03-16 11:04:00,38.1,25.9,29.79,North,356,7.4,8.3,61,0.00,,---,0.00,VWS V13.01,2013-03-16 15:04:00,
2013-03-16 11:09:00,38.1,25.9,29.79,NNW,343,4.9,10.5,61,0.00,,---,0.00,VWS V13.01,2013-03-16 15:09:00,
2013-03-16 11:14:00,38.3,25.6,29.79,NNW,336,4.5,6.3,60,0.00,,---,0.00,VWS V13.01,2013-03-16 15:14:00,
2013-03-16 11:19:00,38.3,25.6,29.79,North,8,6.3,7.8,60,0.00,,---,0.00,VWS V13.01,2013-03-16 15:19:00,
2013-03-16 11:24:00,38.1,25.1,29.79,NNW,339,4.9,8.7,59,0.00,,---,0.00,VWS V13.01,2013-03-16 15:24:00,
2013-03-16 11:29:00,38.1,25.1,29.82,NNW,329,4.5,6.3,59,0.00,,---,0.00,VWS V13.01,2013-03-16 15:29:00,
2013-03-16 11:34:00,38.1,25.1,29.82,North,351,6.7,7.4,59,0.00,,---,0.00,VWS V13.01,2013-03-16 15:34:00,
2013-03-16 11:39:00,38.3,25.2,29.82,NW,326,4.9,6.9,59,0.00,,---,0.00,VWS V13.01,2013-03-16 15:39:00,
2013-03-16 11:45:00,38.1,25.1,29.82,NW,324,5.8,11.0,59,0.00,,---,0.00,VWS V13.01,2013-03-16 15:45:00,
2013-03-16 11:50:00,38.1,25.1,29.82,NNW,327,5.8,7.4,59,0.00,,---,0.00,VWS V13.01,2013-03-16 15:50:00,
2013-03-16 11:55:00,37.9,24.9,29.82,NNW,338,6.3,6.3,59,0.00,,---,0.00,VWS V13.01,2013-03-16 15:55:00,
2013-03-16 12:00:00,37.9,24.9,29.82,North,356,5.4,9.2,59,0.00,,---,0.00,VWS V13.01,2013-03-16 16:00:00,
2013-03-16 12:05:00,37.9,24.5,29.82,NW,309,5.8,9.2,58,0.00,,---,0.00,VWS V13.01,2013-03-16 16:05:00,
2013-03-16 12:10:00,37.9,24.5,29.82,NW,316,3.6,4.9,58,0.00,,---,0.00,VWS V13.01,2013-03-16 16:10:00,
2013-03-16 12:15:00,37.8,24.3,29.82,North,351,5.8,6.9,58,0.00,,---,0.00,VWS V13.01,2013-03-16 16:15:00,
2013-03-16 12:20:00,37.9,24.5,29.82,NW,320,4.9,7.4,58,0.00,,---,0.00,VWS V13.01,2013-03-16 16:20:00,
2013-03-16 12:25:00,37.8,24.3,29.82,NW,322,6.7,9.2,58,0.00,,---,0.00,VWS V13.01,2013-03-16 16:25:00,
2013-03-16 12:30:00,37.8,24.7,29.85,NNW,334,7.8,9.2,59,0.00,,---,0.00,VWS V13.01,2013-03-16 16:30:00,
2013-03-16 12:35:00,37.9,25.3,29.85,NW,310,6.9,9.6,60,0.00,,---,0.00,VWS V13.01,2013-03-16 16:35:00,
2013-03-16 12:40:00,37.9,24.9,29.85,NNW,338,5.4,6.9,59,0.00,,---,0.00,VWS V13.01,2013-03-16 16:40:00,
2013-03-16 12:45:00,38.1,25.5,29.85,NNW,329,5.4,8.3,60,0.00,,---,0.00,VWS V13.01,2013-03-16 16:45:00,
2013-03-16 12:50:00,38.3,26.0,29.85,NNE,15,9.6,9.6,61,0.00,,---,0.00,VWS V13.01,2013-03-16 16:50:00,
2013-03-16 12:55:00,38.3,25.6,29.85,NW,319,6.3,6.9,60,0.00,,---,0.00,VWS V13.01,2013-03-16 16:55:00,
2013-03-16 13:00:00,38.5,25.8,29.85,NW,320,7.4,9.2,60,0.00,,---,0.00,VWS V13.01,2013-03-16 17:00:00,
2013-03-16 13:05:00,38.3,24.8,29.85,NW,308,4.0,5.4,58,0.00,,---,0.00,VWS V13.01,2013-03-16 17:05:00,
2013-03-16 13:10:00,38.3,24.8,29.85,WNW,298,5.8,6.9,58,0.00,,---,0.00,VWS V13.01,2013-03-16 17:10:00,
2013-03-16 13:15:00,38.1,24.2,29.85,NNW,343,8.7,10.5,57,0.00,,---,0.00,VWS V13.01,2013-03-16 17:15:00,
2013-03-16 13:20:00,38.1,24.7,29.85,NW,318,8.7,10.1,58,0.00,,---,0.00,VWS V13.01,2013-03-16 17:20:00,
2013-03-16 13:25:00,37.9,24.1,29.85,NNW,342,4.5,6.9,57,0.00,,---,0.00,VWS V13.01,2013-03-16 17:25:00,
2013-03-16 13:30:00,37.9,24.1,29.88,WNW,302,8.3,8.3,57,0.00,,---,0.00,VWS V13.01,2013-03-16 17:30:00,
2013-03-16 13:35:00,37.4,23.1,29.88,WNW,296,5.8,7.4,56,0.00,,---,0.00,VWS V13.01,2013-03-16 17:35:00,
2013-03-16 13:40:00,37.6,23.3,29.88,NW,318,6.3,8.7,56,0.00,,---,0.00,VWS V13.01,2013-03-16 17:40:00,
2013-03-16 13:45:00,37.6,23.3,29.88,WNW,294,7.4,9.2,56,0.00,,---,0.00,VWS V13.01,2013-03-16 17:45:00,
2013-03-16 13:50:00,37.0,22.4,29.88,WNW,300,8.7,8.7,55,0.00,,---,0.00,VWS V13.01,2013-03-16 17:50:00,
2013-03-16 13:55:00,37.2,22.6,29.88,West,275,6.7,8.7,55,0.00,,---,0.00,VWS V13.01,2013-03-16 17:55:00,
2013-03-16 14:00:00,37.0,22.0,29.88,NW,320,5.4,6.3,54,0.00,,---,0.00,VWS V13.01,2013-03-16 18:00:00,
2013-03-16 14:05:00,37.2,22.6,29.88,WNW,299,6.9,7.8,55,0.00,,---,0.00,VWS V13.01,2013-03-16 18:05:00,
2013-03-16 14:10:00,37.4,22.7,29.88,NNW,331,10.5,10.5,55,0.00,,---,0.00,VWS V13.01,2013-03-16 18:10:00,
2013-03-16 14:15:00,37.2,22.1,29.88,NNW,333,5.8,9.2,54,0.00,,---,0.00,VWS V13.01,2013-03-16 18:15:00,
2013-03-16 14:20:00,37.4,22.7,29.88,NW,315,4.5,5.4,55,0.00,,---,0.00,VWS V13.01,2013-03-16 18:20:00,
2013-03-16 14:25:00,37.4,22.7,29.88,NW,322,4.0,7.8,55,0.00,,---,0.00,VWS V13.01,2013-03-16 18:25:00,
2013-03-16 14:30:00,37.4,22.3,29.88,WNW,303,6.9,8.3,54,0.00,,---,0.00,VWS V13.01,2013-03-16 18:30:00,
2013-03-16 14:35:00,37.8,23.1,29.88,WNW,291,6.9,10.5,55,0.00,,---,0.00,VWS V13.01,2013-03-16 18:35:00,
2013-03-16 14:40:00,37.6,22.5,29.88,NW,304,6.3,8.7,54,0.00,,---,0.00,VWS V13.01,2013-03-16 18:40:00,
2013-03-16 14:45:00,37.4,21.9,29.91,NW,305,6.9,8.7,53,0.00,,---,0.00,VWS V13.01,2013-03-16 18:45:00,
2013-03-16 14:50:00,37.6,22.5,29.91,NW,307,9.6,10.1,54,0.00,,---,0.00,VWS V13.01,2013-03-16 18:50:00,
2013-03-16 14:55:00,37.6,22.0,29.91,NW,322,5.8,9.2,53,0.00,,---,0.00,VWS V13.01,2013-03-16 18:55:00,
2013-03-16 15:00:00,38.1,23.0,29.91,WNW,301,5.4,5.8,54,0.00,,---,0.00,VWS V13.01,2013-03-16 19:00:00,
2013-03-16 15:05:00,38.5,22.9,29.91,NW,313,4.5,8.3,53,0.00,,---,0.00,VWS V13.01,2013-03-16 19:05:00,
2013-03-16 15:10:00,38.5,22.4,29.91,WNW,302,7.4,8.3,52,0.00,,---,0.00,VWS V13.01,2013-03-16 19:10:00,
2013-03-16 15:15:00,38.5,21.9,29.91,NW,324,5.8,7.8,51,0.00,,---,0.00,VWS V13.01,2013-03-16 19:15:00,
2013-03-16 15:20:00,38.7,22.6,29.91,NW,324,5.4,7.8,52,0.00,,---,0.00,VWS V13.01,2013-03-16 19:20:00,
2013-03-16 15:25:00,38.5,21.9,29.91,NW,310,6.3,6.3,51,0.00,,---,0.00,VWS V13.01,2013-03-16 19:25:00,
2013-03-16 15:30:00,38.7,22.1,29.91,NW,320,6.7,7.8,51,0.00,,---,0.00,VWS V13.01,2013-03-16 19:30:00,
2013-03-16 15:35:00,38.5,21.9,29.91,NW,304,5.4,8.7,51,0.00,,---,0.00,VWS V13.01,2013-03-16 19:35:00,
2013-03-16 15:40:00,38.3,21.8,29.91,NW,326,4.0,5.4,51,0.00,,---,0.00,VWS V13.01,2013-03-16 19:40:00,
2013-03-16 15:45:00,38.5,21.9,29.91,NNE,17,5.8,7.8,51,0.00,,---,0.00,VWS V13.01,2013-03-16 19:45:00,
2013-03-16 15:50:00,38.5,21.9,29.91,NW,319,4.9,7.8,51,0.00,,---,0.00,VWS V13.01,2013-03-16 19:50:00,
2013-03-16 15:55:00,38.5,21.9,29.91,WNW,299,4.0,6.7,51,0.00,,---,0.00,VWS V13.01,2013-03-16 19:55:00,
2013-03-16 16:00:00,38.7,22.1,29.91,WNW,297,8.3,11.2,51,0.00,,---,0.00,VWS V13.01,2013-03-16 20:00:00,
2013-03-16 16:05:00,38.8,22.3,29.91,NW,305,5.4,7.8,51,0.00,,---,0.00,VWS V13.01,2013-03-16 20:05:00,
2013-03-16 16:10:00,38.7,21.6,29.91,NW,322,5.8,7.8,50,0.00,,---,0.00,VWS V13.01,2013-03-16 20:10:00,
2013-03-16 16:15:00,39.0,22.0,29.91,NW,318,7.4,8.3,50,0.00,,---,0.00,VWS V13.01,2013-03-16 20:15:00,
2013-03-16 16:20:00,38.8,21.3,29.91,NW,315,6.3,13.9,49,0.00,,---,0.00,VWS V13.01,2013-03-16 20:20:00,
2013-03-16 16:25:00,38.7,20.7,29.91,WSW,241,9.2,9.2,48,0.00,,---,0.00,VWS V13.01,2013-03-16 20:25:00,
2013-03-16 16:30:00,38.5,21.0,29.93,NW,316,5.4,6.7,49,0.00,,---,0.00,VWS V13.01,2013-03-16 20:30:00,
2013-03-16 16:35:00,38.8,21.3,29.93,NW,314,7.4,10.1,49,0.00,,---,0.00,VWS V13.01,2013-03-16 20:35:00,
2013-03-16 16:40:00,38.8,21.3,29.93,NW,311,6.9,6.9,49,0.00,,---,0.00,VWS V13.01,2013-03-16 20:40:00,
2013-03-16 16:45:00,38.8,21.3,29.93,NNW,331,8.3,8.3,49,0.00,,---,0.00,VWS V13.01,2013-03-16 20:45:00,
2013-03-16 16:50:00,38.8,21.3,29.93,NW,326,3.6,3.6,49,0.00,,---,0.00,VWS V13.01,2013-03-16 20:50:00,
2013-03-16 16:55:00,38.7,20.7,29.93,NW,309,6.3,6.3,48,0.00,,---,0.00,VWS V13.01,2013-03-16 20:55:00,
2013-03-16 17:00:00,38.5,20.5,29.93,NNW,330,0.0,0.0,48,0.00,,---,0.00,VWS V13.01,2013-03-16 21:00:00,
2013-03-16 17:05:00,38.7,20.7,29.93,NW,310,4.0,4.9,48,0.00,,---,0.00,VWS V13.01,2013-03-16 21:05:00,
2013-03-16 17:10:00,38.5,20.0,29.93,WNW,286,5.4,5.4,47,0.00,,---,0.00,VWS V13.01,2013-03-16 21:10:00,
2013-03-16 17:15:00,38.5,20.5,29.93,WNW,300,4.9,7.4,48,0.00,,---,0.00,VWS V13.01,2013-03-16 21:15:00,
2013-03-16 17:20:00,38.3,20.4,29.93,WNW,291,7.4,7.4,48,0.00,,---,0.00,VWS V13.01,2013-03-16 21:20:00,
2013-03-16 17:25:00,38.3,20.4,29.93,NNW,343,6.3,6.9,48,0.00,,---,0.00,VWS V13.01,2013-03-16 21:25:00,
2013-03-16 17:30:00,38.3,20.4,29.93,WNW,297,2.7,4.5,48,0.00,,---,0.00,VWS V13.01,2013-03-16 21:30:00,
2013-03-16 17:35:00,37.9,19.5,29.93,NW,308,6.7,6.7,47,0.00,,---,0.00,VWS V13.01,2013-03-16 21:35:00,
2013-03-16 17:40:00,38.3,20.8,29.93,NW,316,5.4,6.3,49,0.00,,---,0.00,VWS V13.01,2013-03-16 21:40:00,
2013-03-16 17:45:00,37.9,18.5,29.93,West,265,4.9,5.4,45,0.00,,---,0.00,VWS V13.01,2013-03-16 21:45:00,
2013-03-16 17:50:00,37.4,18.0,29.93,NW,306,5.8,6.3,45,0.00,,---,0.00,VWS V13.01,2013-03-16 21:50:00,
2013-03-16 17:55:00,37.6,18.7,29.96,WNW,293,6.3,6.3,46,0.00,,---,0.00,VWS V13.01,2013-03-16 21:55:00,
2013-03-16 18:00:00,37.8,18.9,29.96,NW,308,5.8,5.8,46,0.00,,---,0.00,VWS V13.01,2013-03-16 22:00:00,
2013-03-16 18:05:00,38.1,19.7,29.96,NW,306,4.0,6.3,47,0.00,,---,0.00,VWS V13.01,2013-03-16 22:05:00,
2013-03-16 18:10:00,38.1,19.2,29.96,NW,318,4.9,4.9,46,0.00,,---,0.00,VWS V13.01,2013-03-16 22:10:00,
2013-03-16 18:15:00,37.9,19.0,29.96,NW,315,6.7,8.7,46,0.00,,---,0.00,VWS V13.01,2013-03-16 22:15:00,
2013-03-16 18:20:00,37.9,19.0,29.96,NW,318,5.8,6.3,46,0.00,,---,0.00,VWS V13.01,2013-03-16 22:20:00,
2013-03-16 18:25:00,37.9,19.0,29.96,NW,322,4.5,5.8,46,0.00,,---,0.00,VWS V13.01,2013-03-16 22:25:00,
2013-03-16 18:30:00,37.9,19.5,29.96,West,262,3.1,4.5,47,0.00,,---,0.00,VWS V13.01,2013-03-16 22:30:00,
2013-03-16 18:35:00,37.8,18.3,29.96,WNW,295,4.5,5.8,45,0.00,,---,0.00,VWS V13.01,2013-03-16 22:35:00,
2013-03-16 18:40:00,37.2,17.3,29.96,NW,306,5.4,5.8,44,0.00,,---,0.00,VWS V13.01,2013-03-16 22:40:00,
2013-03-16 18:45:00,37.2,18.4,29.96,West,276,4.5,5.4,46,0.00,,---,0.00,VWS V13.01,2013-03-16 22:45:00,
2013-03-16 18:50:00,36.7,17.4,29.96,West,278,4.9,6.3,45,0.00,,---,0.00,VWS V13.01,2013-03-16 22:50:00,
2013-03-16 18:55:00,36.3,17.0,29.96,West,264,2.7,4.9,45,0.00,,---,0.00,VWS V13.01,2013-03-16 22:55:00,
2013-03-16 19:00:00,36.3,18.0,29.96,NNW,329,5.8,5.8,47,0.00,,---,0.00,VWS V13.01,2013-03-16 23:00:00,
2013-03-16 19:05:00,36.7,18.9,29.96,NW,312,4.0,4.9,48,0.00,,---,0.00,VWS V13.01,2013-03-16 23:05:00,
2013-03-16 19:10:00,36.9,18.5,29.96,NW,310,3.1,4.9,47,0.00,,---,0.00,VWS V13.01,2013-03-16 23:10:00,
2013-03-16 19:15:00,37.0,18.7,29.96,WNW,297,3.1,4.9,47,0.00,,---,0.00,VWS V13.01,2013-03-16 23:15:00,
2013-03-16 19:20:00,37.0,18.7,29.96,WNW,299,3.1,4.9,47,0.00,,---,0.00,VWS V13.01,2013-03-16 23:20:00,
2013-03-16 19:25:00,37.0,18.7,29.96,WNW,295,3.1,4.0,47,0.00,,---,0.00,VWS V13.01,2013-03-16 23:25:00,
2013-03-16 19:30:00,37.0,18.7,29.96,WNW,295,0.0,0.0,47,0.00,,---,0.00,VWS V13.01,2013-03-16 23:30:00,
2013-03-16 19:35:00,36.9,18.0,29.96,WNW,293,0.0,3.1,46,0.00,,---,0.00,VWS V13.01,2013-03-16 23:35:00,
2013-03-16 19:40:00,36.9,18.0,29.96,West,260,0.0,3.1,46,0.00,,---,0.00,VWS V13.01,2013-03-16 23:40:00,
2013-03-16 19:46:00,36.9,18.0,29.96,West,261,0.0,3.6,46,0.00,,---,0.00,VWS V13.01,2013-03-16 23:46:00,
2013-03-16 19:51:00,36.9,18.0,29.96,West,261,0.0,0.0,46,0.00,,---,0.00,VWS V13.01,2013-03-16 23:51:00,
2013-03-16 19:56:00,36.7,17.9,29.96,West,259,0.0,3.6,46,0.00,,---,0.00,VWS V13.01,2013-03-16 23:56:00,
2013-03-16 20:01:00,36.7,17.9,29.96,West,259,0.0,3.6,46,0.00,,---,0.00,VWS V13.01,2013-03-17 00:01:00,
2013-03-16 20:06:00,36.7,17.9,29.96,WSW,258,0.0,0.0,46,0.00,,---,0.00,VWS V13.01,2013-03-17 00:06:00,
2013-03-16 20:11:00,36.1,17.4,29.99,West,265,4.9,6.3,46,0.00,,---,0.00,VWS V13.01,2013-03-17 00:11:00,
2013-03-16 20:16:00,35.8,18.0,29.99,WSW,243,4.9,5.4,48,0.00,,---,0.00,VWS V13.01,2013-03-17 00:16:00,
2013-03-16 20:21:00,35.4,18.2,29.99,WSW,246,2.7,5.8,49,0.00,,---,0.00,VWS V13.01,2013-03-17 00:21:00,
2013-03-16 20:26:00,35.2,18.5,29.99,WSW,253,5.8,6.7,50,0.00,,---,0.00,VWS V13.01,2013-03-17 00:26:00,
2013-03-16 20:31:00,35.1,18.3,29.99,SW,228,0.0,0.0,50,0.00,,---,0.00,VWS V13.01,2013-03-17 00:31:00,
2013-03-16 20:36:00,34.9,18.1,29.99,WSW,256,4.0,4.9,50,0.00,,---,0.00,VWS V13.01,2013-03-17 00:36:00,
2013-03-16 20:41:00,34.5,18.3,29.99,SW,231,4.0,6.7,51,0.00,,---,0.00,VWS V13.01,2013-03-17 00:41:00,
2013-03-16 20:46:00,34.0,17.8,29.99,SW,225,4.0,5.8,51,0.00,,---,0.00,VWS V13.01,2013-03-17 00:46:00,
2013-03-16 20:51:00,33.8,17.6,29.99,SW,218,6.3,6.3,51,0.00,,---,0.00,VWS V13.01,2013-03-17 00:51:00,
2013-03-16 20:56:00,33.4,17.3,29.99,SSW,194,4.5,8.7,51,0.00,,---,0.00,VWS V13.01,2013-03-17 00:56:00,
2013-03-16 21:01:00,33.3,17.1,29.99,WSW,243,3.1,6.3,51,0.00,,---,0.00,VWS V13.01,2013-03-17 01:01:00,
2013-03-16 21:06:00,33.3,17.5,29.99,South,169,3.1,4.9,52,0.00,,---,0.00,VWS V13.01,2013-03-17 01:06:00,
2013-03-16 21:11:00,33.4,17.7,29.99,WSW,242,3.1,6.3,52,0.00,,---,0.00,VWS V13.01,2013-03-17 01:11:00,
2013-03-16 21:16:00,33.4,17.7,29.99,WSW,246,4.9,7.4,52,0.00,,---,0.00,VWS V13.01,2013-03-17 01:16:00,
2013-03-16 21:21:00,33.4,17.7,29.99,WSW,252,3.1,4.9,52,0.00,,---,0.00,VWS V13.01,2013-03-17 01:21:00,
2013-03-16 21:26:00,33.3,17.5,30.02,WSW,253,4.5,4.9,52,0.00,,---,0.00,VWS V13.01,2013-03-17 01:26:00,
2013-03-16 21:31:00,33.1,16.9,30.02,SSW,202,5.4,5.8,51,0.00,,---,0.00,VWS V13.01,2013-03-17 01:31:00,
2013-03-16 21:36:00,32.7,17.0,30.02,WSW,258,4.5,4.9,52,0.00,,---,0.00,VWS V13.01,2013-03-17 01:36:00,
2013-03-16 21:41:00,32.5,17.3,30.02,West,268,6.3,7.8,53,0.00,,---,0.00,VWS V13.01,2013-03-17 01:41:00,
2013-03-16 21:46:00,32.7,17.5,30.02,SW,235,3.1,5.4,53,0.00,,---,0.00,VWS V13.01,2013-03-17 01:46:00,
2013-03-16 21:51:00,32.5,17.3,30.02,SSW,210,3.6,5.8,53,0.00,,---,0.00,VWS V13.01,2013-03-17 01:51:00,
2013-03-16 21:56:00,32.0,16.8,30.02,WSW,257,4.5,5.8,53,0.00,,---,0.00,VWS V13.01,2013-03-17 01:56:00,
2013-03-16 22:01:00,32.0,17.2,30.02,West,279,5.4,7.4,54,0.00,,---,0.00,VWS V13.01,2013-03-17 02:01:00,
2013-03-16 22:06:00,31.6,16.9,30.02,WSW,238,6.7,6.7,54,0.00,,---,0.00,VWS V13.01,2013-03-17 02:06:00,
2013-03-16 22:11:00,31.6,17.3,30.02,SW,230,6.3,6.9,55,0.00,,---,0.00,VWS V13.01,2013-03-17 02:11:00,
2013-03-16 22:16:00,31.3,16.6,30.02,WSW,246,5.4,5.8,54,0.00,,---,0.00,VWS V13.01,2013-03-17 02:16:00,
2013-03-16 22:21:00,31.3,17.0,30.02,WSW,246,4.0,4.5,55,0.00,,---,0.00,VWS V13.01,2013-03-17 02:21:00,
2013-03-16 22:26:00,31.1,17.2,30.02,WSW,238,3.6,8.3,56,0.00,,---,0.00,VWS V13.01,2013-03-17 02:26:00,
2013-03-16 22:31:00,30.9,16.7,30.02,WSW,246,4.9,4.9,55,0.00,,---,0.00,VWS V13.01,2013-03-17 02:31:00,
2013-03-16 22:36:00,30.9,16.7,30.02,WSW,245,6.7,9.6,55,0.00,,---,0.00,VWS V13.01,2013-03-17 02:36:00,
2013-03-16 22:41:00,31.3,17.0,30.05,NW,310,4.5,4.5,55,0.00,,---,0.00,VWS V13.01,2013-03-17 02:41:00,
2013-03-16 22:46:00,31.3,17.0,30.05,West,267,4.9,6.9,55,0.00,,---,0.00,VWS V13.01,2013-03-17 02:46:00,
2013-03-16 22:51:00,31.3,17.0,30.05,WSW,253,5.4,6.7,55,0.00,,---,0.00,VWS V13.01,2013-03-17 02:51:00,
2013-03-16 22:56:00,31.3,16.6,30.05,West,276,4.9,7.8,54,0.00,,---,0.00,VWS V13.01,2013-03-17 02:56:00,
2013-03-16 23:01:00,31.1,16.4,30.05,West,281,4.5,5.8,54,0.00,,---,0.00,VWS V13.01,2013-03-17 03:01:00,
2013-03-16 23:06:00,30.7,16.1,30.05,WNW,294,5.4,7.8,54,0.00,,---,0.00,VWS V13.01,2013-03-17 03:06:00,
2013-03-16 23:11:00,30.9,16.7,30.05,West,281,6.3,6.3,55,0.00,,---,0.00,VWS V13.01,2013-03-17 03:11:00,
2013-03-16 23:16:00,30.9,16.2,30.05,WSW,245,4.0,6.3,54,0.00,,---,0.00,VWS V13.01,2013-03-17 03:16:00,
2013-03-16 23:21:00,30.7,16.1,30.05,WSW,247,6.3,7.8,54,0.00,,---,0.00,VWS V13.01,2013-03-17 03:21:00,
2013-03-16 23:26:00,30.4,15.7,30.05,West,263,4.0,6.3,54,0.00,,---,0.00,VWS V13.01,2013-03-17 03:26:00,
2013-03-16 23:31:00,30.6,15.9,30.05,WSW,257,4.5,5.4,54,0.00,,---,0.00,VWS V13.01,2013-03-17 03:31:00,
2013-03-16 23:36:00,30.4,15.7,30.05,SW,235,5.4,6.3,54,0.00,,---,0.00,VWS V13.01,2013-03-17 03:36:00,
2013-03-16 23:41:00,30.4,15.7,30.05,WSW,258,4.9,5.4,54,0.00,,---,0.00,VWS V13.01,2013-03-17 03:41:00,
2013-03-16 23:46:00,30.4,15.7,30.05,West,275,3.1,4.0,54,0.00,,---,0.00,VWS V13.01,2013-03-17 03:46:00,
2013-03-16 23:51:00,30.6,15.9,30.05,West,259,3.1,5.8,54,0.00,,---,0.00,VWS V13.01,2013-03-17 03:51:00,
2013-03-16 23:56:00,30.4,15.7,30.05,WSW,244,2.7,4.5,54,0.00,,---,0.00,VWS V13.01,2013-03-17 03:56:00,